Theta_e
350 350 348 346 343 342 343 344 343 343 342 341 340 339 340 340 338 336 332 334 334 334 337 337 336 337 338 340 338 339 342 346 345 345 345 345 344 344 343 342 342 342 342 342 342 340 340 340 339 338 337 335 334 334 335 334 334 334 335 337 337 337
349 350 349 345 341 341 342 340 341 342 342 341 341 340 341 338 335 336 331 333 334 332 333 334 337 332 338 339 339 339 340 345 345 345 345 345 344 344 343 343 343 343 342 342 341 338 339 339 338 337 335 333 334 335 336 336 336 335 336 337 337 337
348 349 347 343 342 341 338 340 340 341 342 340 340 341 338 338 338 333 332 331 333 333 331 331 334 336 336 336 339 341 341 343 346 344 344 345 344 343 343 344 344 342 342 341 338 336 334 332 332 337 336 334 334 334 336 336 336 336 335 336 338 337
345 347 344 343 343 342 342 343 344 344 345 346 341 338 337 337 335 336 333 333 332 331 331 333 330 334 336 335 336 340 342 342 345 345 343 343 344 343 343 344 343 342 341 340 336 334 332 333 337 337 335 332 332 333 334 335 333 335 335 334 337 335
344 345 343 342 343 342 342 342 343 344 342 338 337 337 336 337 336 336 334 333 331 331 331 330 330 332 333 334 333 334 338 337 341 346 344 346 340 342 344 342 340 342 336 334 333 333 332 333 334 335 334 332 332 333 333 333 333 334 335 335 336 336
344 344 343 341 343 343 342 342 338 337 337 337 336 336 335 337 336 337 333 329 332 332 331 330 330 331 332 333 331 331 332 335 334 344 342 342 338 343 344 342 340 338 334 333 332 333 332 333 332 334 331 331 330 331 331 332 332 332 334 334 336 335
342 342 342 342 343 342 341 339 337 337 335 335 336 336 333 333 334 334 333 330 328 327 328 328 328 328 330 332 332 331 330 331 334 335 342 340 337 343 342 339 338 337 335 331 331 331 331 332 332 329 330 329 330 330 330 330 330 330 333 333 335 335
341 341 341 341 341 338 340 337 337 337 336 334 333 331 331 333 333 331 332 332 329 328 326 326 328 326 328 331 331 332 332 329 330 332 337 337 335 339 340 341 339 336 332 331 329 331 330 330 330 330 329 329 328 330 330 329 330 331 332 334 335 336
340 340 340 340 339 337 337 337 336 335 333 332 334 333 331 332 330 328 330 329 329 327 326 328 328 326 327 330 330 331 330 329 331 331 334 335 334 337 340 339 337 335 334 331 330 332 330 330 331 331 329 328 328 329 329 329 330 330 330 332 334 334
340 340 340 339 338 337 336 335 335 335 334 333 332 333 331 328 327 327 327 326 326 324 326 326 327 326 324 328 331 331 332 331 330 331 332 333 333 335 339 338 336 334 332 331 330 331 330 330 329 330 329 329 328 328 330 328 328 328 329 331 332 331
339 341 341 338 338 338 338 336 335 335 335 334 333 332 330 329 327 327 327 328 327 325 325 326 328 327 328 326 329 331 331 332 329 330 333 333 335 335 336 337 335 334 333 331 331 331 330 331 331 328 329 329 329 330 329 330 328 327 326 328 330 329
340 343 342 338 338 337 338 337 336 335 334 335 333 331 328 329 327 327 327 329 327 325 326 325 329 328 328 326 327 328 331 332 331 331 333 333 332 336 336 334 334 336 335 335 333 331 332 330 331 329 329 328 330 330 329 328 327 325 325 325 324 324
343 345 341 338 338 338 338 336 336 336 336 334 332 331 329 328 329 330 330 327 326 325 327 326 328 328 327 325 326 328 329 332 332 333 334 334 333 335 336 335 336 336 335 335 334 333 331 333 332 331 330 330 331 329 329 328 329 326 323 322 320 319
344 341 341 341 341 338 337 336 336 336 336 333 330 328 328 330 328 327 328 326 324 324 324 328 327 328 326 325 327 328 329 329 332 334 333 335 332 332 333 334 334 334 334 334 333 333 330 330 330 331 331 330 330 331 330 328 327 325 322 320 319 317
341 342 341 342 340 338 337 335 335 334 334 332 331 329 328 329 326 327 327 324 323 325 325 326 327 326 324 324 324 325 328 329 333 333 332 332 332 333 334 333 332 332 335 333 331 330 330 331 329 330 330 332 330 329 330 328 326 323 321 320 319 315
339 341 340 340 339 337 336 336 334 333 333 332 328 328 328 328 327 325 325 326 324 325 325 326 326 325 326 324 322 324 326 330 332 332 332 332 334 331 332 334 334 332 332 330 331 331 333 332 331 329 331 331 330 330 330 329 326 322 322 321 319 317
337 338 338 337 336 338 338 335 334 333 330 331 328 328 327 329 327 327 324 323 323 324 324 325 325 324 325 325 322 325 326 331 332 330 332 333 332 332 332 333 335 334 334 331 330 330 333 335 332 332 333 330 329 331 329 329 326 324 321 318 318 315
336 335 338 338 337 338 337 335 334 331 332 329 329 329 328 326 327 326 326 323 322 322 324 324 325 324 325 324 324 325 327 330 329 331 331 332 332 333 332 335 335 335 335 334 331 331 332 333 331 330 331 328 330 330 329 330 329 325 323 318 318 316
336 336 338 339 339 337 337 336 333 332 330 329 330 328 327 325 325 327 324 323 323 323 323 324 324 324 325 323 323 325 328 329 329 329 331 331 333 333 333 335 334 335 336 334 334 333 334 333 329 328 327 329 330 329 331 329 328 325 325 320 317 315
337 336 339 338 335 332 331 329 328 328 327 328 328 326 328 325 327 324 324 323 322 323 323 323 323 324 324 324 325 326 328 329 327 328 329 329 329 331 333 335 335 332 334 334 335 336 336 333 329 330 329 328 328 329 328 328 327 324 325 321 319 318
336 337 335 331 330 328 327 326 327 326 326 326 326 327 326 327 327 327 324 322 322 322 323 322 322 322 324 323 327 328 329 327 327 326 327 330 332 332 335 336 335 335 332 331 330 333 333 333 328 327 329 327 328 328 329 327 324 325 323 322 321 319
335 335 333 332 330 329 329 327 327 326 325 325 324 323 323 326 327 324 324 323 323 322 322 323 323 324 325 324 326 327 327 327 327 327 328 330 333 333 334 333 333 331 331 329 329 329 328 329 325 323 322 323 324 326 329 328 324 323 324 323 323 321
334 333 333 334 332 330 330 331 330 327 325 324 326 328 324 326 326 324 325 324 323 323 321 321 321 323 323 324 326 327 328 329 328 329 330 331 333 333 333 332 333 329 327 328 328 330 330 331 323 325 326 322 318 318 323 324 326 324 322 323 323 320
334 333 333 333 332 332 332 333 332 332 330 328 326 329 329 328 326 325 324 324 323 323 321 321 320 320 320 323 328 328 329 328 329 331 327 327 329 328 333 332 331 330 329 326 325 327 330 333 329 324 317 319 320 318 313 319 322 322 323 323 322 321
333 333 333 334 333 333 334 333 333 333 332 331 329 327 325 323 325 325 324 324 323 322 321 318 321 321 320 321 325 328 327 328 328 328 329 327 327 327 328 328 329 330 329 326 324 327 331 331 331 329 323 318 317 314 313 316 320 319 322 320 320 320
333 332 332 334 334 334 333 329 328 326 324 324 322 322 320 321 322 322 322 324 324 321 320 320 320 320 321 321 323 326 328 326 327 327 327 328 327 326 327 326 327 329 328 328 326 327 326 331 331 331 330 328 325 317 315 317 315 311 323 321 319 319
333 333 333 333 334 333 331 328 328 325 324 324 321 322 324 324 323 321 325 325 324 324 319 320 320 321 322 321 322 324 326 327 326 327 328 328 328 328 325 325 326 326 326 326 326 323 324 326 330 330 329 328 327 325 321 317 312 312 312 317 316 315
334 333 332 332 332 332 330 329 329 326 324 322 321 322 324 326 327 326 325 325 325 324 322 319 320 320 321 321 321 321 324 326 325 326 324 325 326 327 326 326 328 328 327 326 327 323 324 325 323 323 325 325 325 323 321 319 318 315 313 312 315 316
334 334 332 333 332 330 331 330 329 327 325 323 323 323 324 325 325 327 325 326 326 325 323 321 319 321 320 320 320 319 320 322 324 325 324 324 325 325 327 328 328 328 328 326 326 325 324 323 323 320 323 323 322 320 318 318 317 316 312 311 311 314
334 333 333 333 331 331 331 331 329 328 325 323 324 325 324 323 324 326 325 326 327 325 324 323 321 319 320 319 319 321 318 318 321 323 323 323 325 325 326 327 328 328 328 326 325 325 325 325 324 322 322 322 319 319 317 315 314 314 313 312 309 311
334 334 333 333 331 331 331 330 329 327 326 324 323 324 322 324 323 326 325 325 326 326 325 324 323 322 320 319 320 320 319 318 320 323 322 322 324 324 324 325 325 326 326 326 324 325 325 325 324 322 321 320 319 317 317 314 315 314 312 312 311 310
334 334 334 333 332 331 330 330 330 329 326 325 324 322 322 321 321 321 324 324 326 325 326 325 325 323 322 320 320 319 320 320 319 321 321 322 324 323 324 323 324 325 324 324 325 324 324 323 324 322 323 321 320 320 319 317 316 317 316 314 313 312
334 334 334 333 332 332 331 330 329 328 328 327 325 323 321 321 323 322 322 324 326 325 325 325 324 323 323 322 320 320 320 318 319 321 321 320 321 322 324 324 324 324 323 323 323 324 321 323 324 321 321 323 320 320 318 319 319 318 318 318 316 312
334 334 335 334 333 332 332 331 331 329 327 326 326 326 324 322 323 323 323 325 324 325 325 326 326 324 323 322 321 320 320 320 320 319 319 319 318 319 320 321 322 322 322 323 324 324 323 323 323 323 323 320 321 319 318 319 319 317 316 315 313 312
335 335 335 334 333 332 331 331 331 329 328 328 326 326 325 325 325 323 324 325 325 325 326 326 324 326 326 324 324 322 320 319 318 319 319 319 317 317 318 317 317 320 322 323 323 323 323 322 320 321 323 321 320 319 318 317 317 317 314 313 313 313
336 336 335 334 333 333 332 332 332 331 329 328 328 327 327 326 326 326 325 323 326 326 327 326 327 326 327 326 325 324 324 321 320 319 318 317 317 316 317 316 314 316 318 319 321 321 319 319 321 321 321 321 319 317 318 318 316 315 314 314 314 315
336 336 335 335 334 333 333 332 332 331 330 328 328 327 326 328 327 327 328 326 325 325 328 328 328 329 329 328 327 327 326 323 322 321 320 318 316 316 317 317 315 315 317 316 317 315 317 318 320 320 320 319 319 318 317 319 317 315 317 316 313 313
Wind_Speed
9 10 10 10 9 10 10 11 10 10 9 8 8 7 7 6 5 5 4 4 2 2 2 3 3 4 5 5 7 7 7 7 9 10 10 11 12 13 13 13 13 14 14 14 14 13 12 10 9 8 5 4 4 8 8 9 9 9 9 9 10 11
9 10 10 8 8 8 9 10 10 9 8 8 7 7 6 4 3 5 5 3 2 2 0 2 2 2 3 6 7 7 7 8 9 10 10 11 12 13 13 13 14 14 14 15 15 9 9 9 8 5 3 2 7 8 8 9 9 9 10 9 10 12
10 10 10 9 7 8 10 8 9 8 6 7 6 5 3 3 2 1 3 2 1 3 3 2 3 4 4 7 6 6 8 8 10 11 11 12 12 12 13 14 15 14 13 14 8 7 7 7 7 7 6 6 7 7 8 9 9 9 10 11 10 14
10 10 9 7 7 7 7 7 6 6 5 5 5 3 2 0 2 2 1 1 1 1 1 2 5 6 7 5 7 7 7 10 10 11 12 10 13 13 13 14 13 12 11 7 5 5 6 6 4 5 6 6 6 7 7 8 8 9 10 13 12 15
10 9 9 8 8 7 7 6 5 5 5 4 3 2 2 1 1 1 1 1 0 1 1 1 1 2 3 3 3 5 7 7 7 8 11 8 8 10 10 8 9 9 4 6 5 5 5 5 5 5 6 6 6 7 8 8 8 9 10 11 13 15
9 9 8 8 7 7 7 6 6 5 3 3 2 2 1 1 1 2 4 1 1 2 2 1 1 1 3 3 2 2 3 4 7 7 9 7 8 8 6 6 6 5 5 6 5 5 5 5 6 5 6 6 6 6 7 8 8 8 9 10 11 14
10 9 9 8 7 7 6 5 5 4 3 3 2 1 1 1 1 1 3 2 3 3 2 0 1 2 2 4 3 3 3 4 5 7 7 6 7 6 5 5 5 5 5 6 6 6 5 5 5 6 5 6 6 6 7 7 8 8 8 10 12 15
9 9 8 8 7 7 6 6 4 4 3 4 1 1 0 1 1 2 2 2 4 3 2 3 1 2 2 3 3 2 2 3 4 6 6 5 6 5 5 5 5 5 6 6 7 5 5 5 5 5 6 6 6 6 7 7 8 9 8 8 10 14
10 10 8 7 6 6 6 5 5 4 2 4 1 0 2 1 1 1 1 3 4 3 4 3 2 2 3 3 4 3 3 3 3 4 6 6 5 6 5 5 6 5 5 5 5 5 5 4 4 4 5 7 6 6 6 7 8 8 8 7 9 12
10 9 8 8 6 5 5 5 4 3 3 4 1 2 3 0 1 2 0 2 3 4 4 4 3 3 3 3 3 3 3 2 1 2 5 6 5 5 6 6 6 6 6 6 6 5 4 5 5 4 5 6 6 6 6 6 6 7 7 7 9 10
10 9 7 7 6 6 5 4 4 4 4 2 3 3 1 1 2 1 1 1 3 3 4 4 4 3 1 3 3 4 4 3 3 2 4 6 6 6 5 5 6 5 5 5 5 5 5 5 4 4 5 5 4 5 5 4 5 6 7 6 7 8
10 8 8 8 6 6 5 5 4 3 4 3 4 2 1 1 2 2 2 1 2 3 4 4 3 4 3 3 4 5 5 4 3 2 3 4 6 6 6 6 7 6 5 5 6 5 4 4 4 4 4 5 5 4 4 4 5 6 6 5 5 5
9 9 9 8 7 5 5 4 4 4 4 5 4 2 1 2 2 1 0 1 2 2 3 3 4 4 3 4 4 4 5 5 4 2 1 3 7 6 5 6 6 6 6 5 5 5 5 4 3 4 4 5 4 4 4 4 4 5 6 5 4 5
9 9 9 7 6 5 5 4 4 4 4 5 4 2 1 2 1 1 1 1 2 1 3 2 4 4 4 3 3 5 5 5 4 2 2 2 5 6 6 6 6 6 6 6 6 6 5 5 4 3 3 4 3 3 3 4 4 4 4 5 4 4
9 9 8 8 7 6 5 5 5 5 5 5 3 2 1 1 1 1 2 1 1 1 2 3 3 2 4 3 4 5 5 5 5 4 4 2 4 6 6 7 7 7 7 6 6 6 6 5 5 5 4 3 4 3 2 3 4 4 5 4 4 5
10 9 9 8 7 6 6 5 5 5 6 6 3 2 2 1 2 1 1 1 1 1 2 3 3 2 3 4 4 5 6 5 5 4 3 2 4 6 7 7 7 7 7 7 7 7 5 5 5 5 4 3 3 3 3 3 2 3 4 4 5 4
11 10 8 8 7 6 6 6 5 6 6 6 4 3 2 1 1 1 3 2 1 1 3 3 3 3 3 3 4 4 5 5 5 5 4 3 4 5 6 7 7 7 6 7 8 8 6 6 5 5 5 5 5 4 3 1 3 3 3 4 5 5
9 9 7 7 7 6 6 5 5 5 5 5 4 3 1 2 1 1 1 2 1 2 2 3 3 3 3 4 3 4 5 5 6 5 4 4 4 5 6 7 8 8 7 7 7 7 8 7 6 5 6 5 4 4 3 2 3 2 3 4 3 4
8 8 7 6 6 6 6 5 4 5 6 5 4 3 2 2 1 1 1 1 1 1 2 3 3 3 3 4 4 4 4 5 6 6 5 5 5 5 5 7 8 8 8 8 7 7 7 6 6 5 5 6 5 4 3 3 4 3 2 2 3 3
8 8 7 6 6 6 6 6 6 6 6 6 5 4 3 2 1 2 1 1 1 1 2 3 3 3 3 3 4 4 4 5 6 6 6 6 6 6 7 7 8 9 9 9 7 7 7 6 5 5 4 4 4 5 6 5 5 4 3 3 4 3
8 8 7 7 7 7 7 7 6 7 6 5 5 3 3 3 3 0 1 1 0 1 1 2 3 4 3 3 4 3 4 5 6 7 7 6 6 6 7 6 7 7 9 9 9 8 6 6 6 5 4 5 5 4 5 5 6 5 4 3 4 4
8 8 8 8 7 7 7 7 6 6 6 5 5 5 4 3 3 1 2 1 1 1 1 2 2 2 3 4 4 4 4 5 5 6 7 7 6 6 6 7 6 7 8 9 8 9 7 7 7 6 6 5 4 3 5 6 7 7 6 5 4 5
9 9 8 8 8 7 7 7 6 5 6 5 5 4 4 2 2 2 2 2 2 2 2 3 2 3 3 4 4 3 4 3 5 5 5 6 5 6 6 8 8 7 6 7 7 7 7 9 6 6 5 4 5 5 6 6 8 8 7 6 6 6
9 9 8 8 8 8 8 7 7 5 6 5 4 4 3 2 3 2 3 3 2 1 2 4 2 3 4 2 3 4 4 4 4 3 5 6 6 7 6 6 7 7 6 6 7 6 7 8 6 6 7 7 5 6 6 9 7 8 8 8 8 7
9 9 8 8 8 7 7 6 5 4 4 3 3 5 5 5 4 3 3 3 3 2 2 3 2 3 3 2 4 3 4 4 4 3 5 6 7 8 8 8 8 7 8 7 7 5 6 7 8 7 6 5 4 5 6 3 8 4 7 8 9 9
9 9 8 9 9 8 7 8 7 7 7 7 6 6 6 6 5 5 4 1 0 1 2 2 3 3 3 2 3 4 3 5 5 4 4 5 7 7 8 9 9 8 8 8 7 6 6 6 7 8 7 7 5 5 3 6 3 4 7 6 7 8
10 9 9 9 10 8 8 8 9 9 8 7 7 6 5 5 5 4 2 1 1 1 2 2 3 2 2 2 3 3 4 5 4 5 4 4 5 7 8 9 8 8 8 7 7 8 8 7 5 6 8 8 7 7 4 3 4 4 5 6 6 6
10 9 9 9 11 9 9 8 9 9 8 8 8 7 7 6 5 4 3 3 2 2 2 2 2 3 3 3 3 3 4 5 4 5 5 6 6 6 7 8 6 7 7 7 8 7 7 7 7 7 8 9 9 8 9 8 7 7 5 4 6 7
11 10 10 11 11 11 9 9 9 8 8 8 7 6 6 6 6 5 4 3 3 1 2 2 2 2 3 3 3 3 4 5 5 5 5 6 6 6 8 6 5 6 6 6 6 6 6 6 7 7 7 8 8 8 8 8 8 7 7 6 6 6
13 10 10 12 11 12 11 9 9 9 9 8 7 6 6 6 6 5 5 5 4 3 2 3 3 3 3 3 3 3 4 5 5 5 5 6 5 5 6 6 7 7 7 8 6 6 6 6 6 6 7 7 8 7 8 7 7 7 8 9 8 6
14 11 11 12 12 12 11 10 9 10 11 10 9 8 7 6 7 6 6 6 5 4 3 2 3 3 4 4 3 3 4 3 4 4 5 5 4 6 6 6 6 7 7 8 7 7 8 7 6 7 7 7 7 8 7 7 7 7 7 7 7 8
14 13 11 11 12 12 10 10 10 10 10 10 9 8 8 8 9 9 8 6 5 4 4 3 3 3 4 4 3 3 4 4 3 3 5 5 5 6 6 6 5 5 6 7 7 7 7 8 9 7 8 7 7 7 7 8 7 7 6 7 7 8
14 13 11 12 12 12 11 10 10 10 10 9 9 9 9 9 9 8 7 7 6 5 4 4 4 4 5 5 4 4 4 4 3 4 4 5 5 6 5 5 5 6 7 7 7 8 7 8 8 8 7 7 7 8 8 7 7 7 6 6 7 8
14 13 12 12 12 12 12 10 10 10 10 9 9 9 8 8 8 8 7 7 7 6 5 5 4 5 4 5 5 5 5 5 5 4 5 5 5 5 5 6 7 7 8 7 8 9 9 9 8 9 8 8 8 8 8 7 7 6 7 6 7 8
14 14 13 13 12 13 11 11 10 10 10 9 9 8 8 8 8 9 8 9 8 7 6 5 5 4 4 4 4 4 5 5 5 5 5 4 4 5 5 6 6 6 6 7 7 7 8 9 9 10 9 8 7 7 7 7 7 7 7 7 7 7
14 14 13 13 13 12 12 10 11 11 11 11 9 8 8 8 8 8 9 9 8 8 7 6 6 5 5 5 5 5 5 6 5 5 5 5 5 5 4 5 5 5 6 6 6 8 8 8 9 9 9 8 8 8 7 7 7 6 7 6 6 5
14 14 14 14 13 13 12 12 12 12 11 11 11 11 9 10 10 9 9 9 9 9 8 7 6 6 6 6 5 5 5 5 6 6 6 6 6 5 4 4 5 5 6 6 6 7 7 7 7 7 7 8 7 7 6 5 6 5 5 5 6 5
Wind_Direction
143 147 145 143 141 144 135 134 134 129 128 124 118 112 104 114 124 104 116 102 153 48 83 115 143 103 127 84 93 108 122 142 142 137 133 126 122 118 115 116 114 113 112 109 102 98 95 96 89 79 79 92 88 76 73 75 79 80 79 84 82 82
144 147 147 145 148 146 146 158 149 150 150 142 139 142 159 130 136 132 151 170 55 55 272 97 91 153 134 138 111 105 125 143 147 142 137 134 128 125 123 120 121 121 122 128 138 123 111 100 91 87 99 160 85 81 82 82 85 87 85 84 82 83
143 146 146 150 148 148 158 162 155 157 148 154 150 163 134 148 159 109 34 44 106 46 9 30 43 39 83 74 96 111 130 146 154 145 146 139 136 130 128 129 129 134 145 164 168 117 118 120 120 173 188 90 80 81 85 87 89 87 84 82 88 90
146 147 153 148 152 156 157 155 159 160 160 155 166 164 143 123 53 8 106 36 21 24 26 101 119 144 160 147 125 124 129 148 159 158 145 145 143 136 135 137 139 154 176 181 114 125 118 123 125 101 85 90 86 88 85 86 86 88 88 92 95 91
149 155 158 156 155 161 157 159 163 158 156 164 159 147 142 176 44 271 272 226 104 313 330 44 140 174 216 152 139 144 158 166 171 163 158 160 156 146 150 152 150 184 148 126 120 109 110 109 101 95 88 84 87 89 90 84 86 87 90 88 83 94
156 160 162 162 158 156 161 161 167 152 150 151 152 133 162 242 180 221 269 162 275 204 241 88 88 176 177 179 158 135 161 153 173 176 168 168 164 160 158 157 150 150 138 115 117 114 114 116 111 103 94 91 88 89 92 92 87 88 89 90 91 94
160 163 164 165 161 164 164 163 153 151 169 155 155 187 207 263 291 236 257 290 243 225 234 278 114 172 190 185 155 163 140 171 171 185 187 185 157 173 159 154 145 146 136 128 120 118 132 119 102 105 101 90 89 95 98 100 98 89 84 89 94 85
164 166 167 171 167 166 162 161 143 140 223 99 224 157 42 18 72 218 266 266 271 275 248 235 154 194 180 189 159 147 164 161 193 177 195 188 176 168 164 156 144 155 149 137 136 134 116 121 120 101 101 102 91 79 82 87 91 94 93 94 94 85
168 171 170 173 174 167 157 158 157 177 157 150 212 40 63 131 259 353 242 261 246 254 257 253 223 180 201 178 174 158 174 158 179 190 174 197 193 164 168 164 153 161 154 143 131 129 133 127 127 120 110 95 93 94 89 89 86 84 90 96 93 84
171 172 172 180 172 166 162 168 160 175 118 185 141 116 161 253 339 298 223 302 302 278 266 257 203 226 175 185 180 162 170 149 168 191 179 194 191 185 173 167 167 164 158 152 143 134 143 140 132 138 109 110 106 99 100 95 100 103 105 101 95 93
172 172 175 184 175 163 173 175 166 171 161 201 127 161 216 357 315 347 8 291 283 265 263 242 229 215 220 193 192 194 176 161 156 177 207 185 194 190 185 181 170 170 161 157 146 146 160 150 136 134 120 105 100 96 93 101 92 91 87 85 101 105
169 172 178 185 179 173 182 180 178 190 170 151 161 203 209 280 329 351 352 315 266 270 237 230 225 227 222 209 195 202 182 190 146 170 210 197 187 197 189 184 176 172 163 160 152 164 154 153 157 133 141 116 111 115 106 98 91 80 78 84 94 102
170 173 180 181 188 183 188 184 186 199 169 157 182 217 269 296 351 356 302 305 307 261 237 209 204 237 224 213 205 204 196 182 181 135 184 215 196 196 193 189 173 176 168 158 166 155 167 154 157 153 139 117 117 109 106 92 91 90 83 85 90 99
178 175 181 185 189 191 196 187 182 180 159 178 183 228 274 318 327 319 338 2 300 260 214 206 208 199 236 230 205 210 205 191 169 144 131 207 204 193 197 187 182 178 171 173 174 167 174 167 167 160 141 146 135 110 121 112 100 91 78 74 79 75
176 180 180 188 192 197 188 191 173 168 165 192 194 241 251 296 290 334 320 102 305 201 223 188 224 204 221 235 206 207 210 197 177 183 173 176 217 192 198 194 184 191 173 182 184 174 183 177 168 164 161 165 130 143 104 105 107 102 96 91 85 80
177 181 190 195 200 197 183 184 178 163 169 188 217 234 237 289 320 296 319 29 81 204 201 205 215 216 226 228 217 207 205 200 176 195 177 160 225 196 199 201 194 194 184 189 185 182 188 178 186 164 168 168 142 149 148 125 114 109 106 116 92 107
183 189 193 197 189 175 176 174 171 173 175 183 214 240 236 260 259 332 344 6 82 171 211 200 219 221 250 249 235 221 205 193 198 198 169 186 208 206 191 197 203 207 191 190 194 186 188 179 189 174 175 182 162 167 165 164 138 114 105 116 139 125
189 195 189 184 173 162 168 166 169 170 178 193 215 240 252 274 284 330 335 35 114 170 209 202 229 226 247 258 239 221 208 198 206 199 188 194 204 207 195 197 202 204 199 203 198 191 189 186 190 183 192 181 168 169 166 198 109 162 182 126 127 121
187 185 177 161 148 146 144 159 162 178 182 204 223 224 234 247 286 307 352 100 167 217 202 219 225 245 247 236 227 215 219 192 209 205 198 201 188 199 200 197 206 198 205 203 210 196 197 189 193 192 196 186 172 176 182 184 172 210 187 142 121 142
182 181 164 151 158 163 169 175 182 190 200 218 232 215 224 257 253 256 99 296 118 200 226 222 233 244 247 246 236 208 205 196 207 205 201 208 192 187 193 198 202 204 202 207 206 212 193 187 195 195 194 184 185 187 196 187 220 218 161 178 163 178
173 172 170 172 176 177 180 185 190 207 218 212 235 219 224 247 250 174 345 311 131 232 231 243 246 237 240 237 234 213 195 201 204 209 200 207 199 188 189 197 198 203 209 208 207 206 206 190 198 189 184 196 201 198 221 213 227 231 211 196 168 194
170 174 180 179 174 182 188 195 197 213 220 217 223 223 224 221 235 170 193 233 259 256 252 238 239 262 246 234 216 205 203 194 204 209 206 201 195 181 184 193 195 204 209 212 211 208 199 198 204 200 189 187 211 200 231 230 239 226 231 212 192 204
180 180 182 179 181 187 193 205 213 214 221 220 218 242 251 242 241 235 180 223 223 260 261 239 216 220 224 232 221 214 208 191 204 202 202 196 186 184 188 191 193 204 199 204 219 211 199 209 210 201 205 205 201 219 202 227 244 252 225 226 207 214
182 185 181 184 193 191 194 194 205 220 219 232 216 197 234 194 220 234 210 225 243 217 255 275 241 225 237 198 230 218 211 205 202 212 210 200 198 197 187 195 199 203 204 197 205 199 208 211 234 207 204 211 209 223 223 215 223 219 234 227 220 224
183 185 185 179 185 184 181 182 184 181 189 176 185 209 221 223 224 211 248 213 218 214 237 249 264 268 261 205 226 228 221 206 209 207 217 205 204 207 200 204 202 206 202 215 206 197 207 210 221 230 246 209 216 219 243 239 184 218 208 222 222 227
187 185 185 178 181 182 184 189 186 188 195 200 216 218 220 230 210 218 229 177 237 210 226 254 243 232 257 243 210 227 232 224 200 210 222 220 207 207 211 210 201 207 207 215 225 199 206 211 226 231 247 260 282 310 277 219 208 222 180 236 231 220
190 187 184 182 183 187 192 199 198 203 209 214 220 217 227 225 243 215 220 220 207 187 237 211 247 239 230 238 227 227 221 238 219 215 212 230 218 210 209 212 202 207 214 205 211 222 217 203 202 229 230 235 245 248 261 285 242 263 241 191 234 225
193 190 189 186 188 191 196 199 202 209 217 219 220 221 212 222 224 239 229 224 219 186 208 222 207 237 226 217 222 223 226 235 246 221 218 216 217 216 219 215 205 212 219 218 203 223 211 216 208 220 223 229 230 242 250 248 253 271 271 254 194 212
195 190 188 189 193 193 200 201 203 212 219 222 223 220 226 222 214 213 218 210 246 210 187 202 229 222 229 240 216 224 224 229 234 241 223 223 218 216 225 224 194 217 217 219 221 226 232 222 216 224 205 222 234 233 232 232 250 244 252 248 251 215
198 193 189 190 195 199 200 202 206 212 216 222 220 221 231 210 219 206 217 214 219 227 210 183 205 223 229 225 231 228 224 222 227 236 241 234 221 231 226 228 221 218 220 228 224 232 232 233 229 237 212 220 225 234 244 243 224 235 244 256 269 267
200 198 193 192 196 201 202 203 211 211 214 222 220 222 227 221 221 210 230 224 222 221 237 206 191 203 222 227 219 234 249 233 225 233 240 241 230 229 222 229 226 221 224 224 225 227 232 239 237 237 237 220 227 227 235 238 236 241 253 255 249 254
202 201 196 193 197 202 204 207 212 213 215 220 225 224 226 229 222 222 217 230 223 234 218 212 205 206 213 225 210 221 225 248 233 228 230 240 236 228 232 228 228 229 228 228 236 233 233 234 234 239 238 245 240 246 237 241 248 244 246 252 260 268
203 201 198 195 197 201 204 208 210 212 216 216 225 229 232 221 231 228 225 220 225 233 226 219 213 217 206 214 212 210 219 221 232 225 249 251 235 241 247 245 237 232 234 232 228 232 233 233 236 238 239 240 247 245 247 251 255 263 260 257 259 267
205 203 203 199 200 202 205 208 208 212 215 215 220 224 230 238 214 228 221 228 226 229 233 231 227 221 228 202 207 208 214 221 227 226 223 238 255 254 245 245 238 239 243 244 245 240 239 240 239 240 243 245 239 243 251 256 256 250 249 246 251 254
206 206 205 202 202 206 206 207 209 213 217 219 227 220 223 227 240 223 219 223 228 227 231 234 231 220 215 220 211 217 210 215 218 227 227 232 235 239 249 253 250 248 248 252 253 250 248 246 242 236 234 240 244 246 245 242 241 247 246 247 246 247
205 205 203 202 205 207 209 208 209 213 216 219 224 226 220 224 223 241 231 228 222 231 235 231 232 225 208 221 209 219 210 218 216 217 221 224 229 236 225 235 247 244 243 239 244 245 247 245 247 246 240 236 243 246 233 235 242 232 248 250 248 250
206 206 205 203 206 207 209 211 211 212 215 217 220 221 224 222 226 225 234 234 234 231 229 235 229 222 223 211 222 223 232 219 209 218 220 221 226 228 225 233 237 239 246 243 239 242 238 243 241 239 239 235 236 241 245 238 240 239 226 242 245 243